Overview Statistics Trail Chart Weather Telemetry Raw packets
 

This is the latest recevied weather packets stored in our database for station/object OE6JUE. If no packets are shown the sender has not sent any weather packets the latest 10 day(s).

<< 84 85 86 87 88 89 90 >>
Time Temp. Humidity Pressure Rain* Wind** Luminosity Snow
1788073717 24.44° C 50% 1019.3 hPa 0 mm - - -
1788073417 24.44° C 51% 1019.3 hPa 0 mm - - -
1788073121 23.89° C 52% 1019.3 hPa 0 mm - - -
1788072817 23.33° C 53% 1019.2 hPa 0 mm - - -
1788072517 23.33° C 53% 1019.3 hPa 0 mm - - -
1788072216 22.78° C 54% 1019 hPa 0 mm - - -
1788071916 22.78° C 54% 1019.2 hPa 0 mm - - -
1788071628 22.78° C 54% 1019.1 hPa 0 mm - - -
1788071316 22.78° C 55% 1019.2 hPa 0 mm - - -
1788071016 22.78° C 54% 1019.1 hPa 0 mm - - -
1788070716 22.78° C 56% 1019.1 hPa 0 mm - - -
1788070417 22.22° C 70% 1019.1 hPa 0 mm - - -
1788070116 22.22° C 70% 1019.1 hPa 0 mm - - -
1788069816 21.11° C 70% 1019.2 hPa 0 mm - - -
1788069517 20.56° C 72% 1019 hPa 0 mm - - -
1788069217 20.56° C 72% 1019 hPa 0 mm - - -
1788068917 18.33° C 79% 1019.1 hPa 0 mm - - -
1788068616 17.78° C 82% 1019 hPa 0 mm - - -
1788068316 16.67° C 86% 1019 hPa 0 mm - - -
1788068017 15.56° C 85% 1019.1 hPa 0 mm - - -
1788067716 14.44° C 84% 1018.9 hPa 0 mm - - -
1788067417 14.44° C 84% 1018.9 hPa 0 mm - - -
1788067116 14.44° C 84% 1019 hPa 0 mm - - -
1788066816 15° C 85% 1018.9 hPa 0 mm - - -
1788066516 15° C 85% 1018.9 hPa 0 mm - - -

* Rain latest hour (hover to see other rain measurements)
** Current wind speed in m/s (hover to see current wind gust speed)